Location: Kra?nica
(53.4833°N, 14.6167°E)
Time: 20:31:08
(UTC+00:00)

Okean 1 Rocket - Pass Details

Date: 23 May 2024
Orbit: 602 x 631 km, 82.5° (Epoch: 21 June)

Event Time Altitude Azimuth Distance (km) Brightness Sun altitude
Rises 01:34:59 0° 352° (N) 2,882 7.3 -8.5°
Reaches altitude 10° 01:37:18 10° 360° (N) 1,970 6.5 -8.3°
Maximum altitude 01:41:28 43° 72° (ENE) 854 4.3 -7.9°
Drops below altitude 10° 01:45:35 10° 145° (SE) 1,947 5.5 -7.6°
Sets 01:47:52 0° 152° (SSE) 2,845 6.2 -7.3°
